STARLINK-32727, 62828

Orbit data source: Space-Track

STARLINK-32727, 62828 is a payload satellite owned by SpaceX/Seattle (US) in LEO that was launched on Fri, 24 Jan 2025 UTC via an FALCON 9 launch vehicle from the Air Force Western Test Range (AFWTR). Payload-class satellites include a variety of spacecraft equipped with specific instruments for various scientific and technological missions. These include communications satellites like Starlink; space stations such as the ISS; scientific satellites like the Hubble; Earth observation satellites from companies like Planet Labs, Umbra, and HawkEye 360; GPS; miniature CubeSats for education and research; and military/defense satellites.

Loading next visibility...
Identifier
62828, 2025-018Y
Orbit
LEO
Last TLE update
14 hours ago
Origin
Manufacturer
SpaceX/Seattle
Mission
Operational Commercial Communications
Bus & Motor
STARLINK V2M, Unknown motor
Mass
730 kg wet, ~700 kg dry
Launch date (UTC)
2025-01-24 (5 months ago)
Launch vehicle
FALCON 9
Launch site
Air Force Western Test Range (AFWTR)
Object type
Payload
Rocket body
Debris
Shape & HBR
Box + 2 Pan, 29 m
Radar Cross Section
33.884 m², Large (>1 m²)

Expand to show TLE details & history

TLE from 14 hours ago
0 STARLINK-32727
1 62828U 25018Y   25189.73740322  .00030377  00000-0  76601-3 0  9998
2 62828  53.1601   0.2162 0001135  72.1483 287.9646 15.39635039 26802
Epoch: 2025-07-08T17:41Z
TLE epoch observation values (Epoch: 2025-07-08T17:41:51.638Z)
Latitude
0.00002°
Longitude
167.82297°
Altitude
447.852 km
Speed
7.645 km/s
True Right ascension
00h 00m 51s
True Declination
0° 00' 00"
Sunlit
Object was in daylight at epoch
Visualization orbit readout
Latitude
-37.163°
Longitude
130.72564°
Altitude
459.501 km
Speed
7.637 km/s
Apparent Right ascension
01h 47m 46s
Apparent Declination
-72° 32' 19"
Sunlit
Object is in full shadow
Visualization observer readout
Local Sidereal Time
19:39:58
Azimuth
157.531° S
Elevation
-38.311°
Doppler factor
1
Orbital elements
Apogee altitude
448.22 km
Perigee altitude
446.67 km
Semi-major axis
6,825.582 km
Eccentricity
0.00011
Inclination
53.1601°
RAAN
0.2162°
Arg. of periapsis
72.1483°
True anomaly
Unknown
Mean anomaly
287.9646°
Eccentric anomaly
Unknown
Mean motion
3.84887 °/min
Orbital period
93.53 mins
BSTAR
0.00076601
Loading maneuver chart data...
Loading SW <> Apogee altitude chart data...
Loading historical data...
Loading historical data...
Loading historical data...
Loading historical data...
Loading historical data...
Loading historical data...
Loading historical data...

STARLINK-32727 Visibility forecast

Observer location: undefined°, undefined°

Span
Click to sort rows by Start time (UTC) header in descending order
Start Az.
Max El. time (UTC)
Max El. Az.
Max El.
End time (UTC)
End Az.
6 mins2025-07-09 14:07:27.877Z230.287° WSW2025-07-09 14:10:27.877Z237.95° WSW42.551°2025-07-09 14:13:27.877Z48.869° ENE
5 mins2025-07-09 20:41:27.877Z317.47° NNW2025-07-09 20:43:27.877Z45.991° ENE43.691°2025-07-09 20:46:27.877Z123.627° SE
|